www.pogodaiklimat.ru

Погода и климат >> Архив погоды >> Россия >> Якутия >> Усть-Мома


ПОГОДА в Усть-Моме

  • Прогноз погоды в Усть-Моме
  • Монитор погоды в Усть-Моме
  • Климат города

АРХИВ ПОГОДЫ в Усть-Моме

Время (UTC), дата Ветер
(напр.,м/с)
 
Видим.   Явления Облачность Т
(С)
Тd
(С)
f
(%)
Тe
(С)
Тes
(С)
Комфортность P
(гПа)
Po
(гПа)
Тmin
(С)
Tmax
(С)
R
(мм)
R24
(мм)
S
(см)
00 12.12 штиль 0 4000 м дымка 3/0
[Ci fib]
-45.8 -48.1 77 -46 -46 опасность
обморожения
1024.3 994.6
03 12.12 штиль 0 4000 м дымка 1/0
[Ci fib]
-45.3 -47.2 81 -45 -45 опасность
обморожения
1023.2 993.6
06 12.12 штиль 0 4000 м дымка 1/0
[Ci fib]
-44.5 -46.4 81 -45 -45 опасность
обморожения
1022.5 992.9
09 12.12 штиль 0 4000 м дымка 1/0
[Ci fib]
-44.8 -47.2 77 -45 -45 опасность
обморожения
1021.7 992.3 -44.5
12 12.12 штиль 0 4000 м дымка 3/0
[Ci fib]
-44.8 -47.2 77 -45 -45 опасность
обморожения
1021.3 991.9
15 12.12 штиль 0 4000 м дымка 3/0
[Ci fib]
-44.4 -46.4 80 -44 -44 опасность
обморожения
1020.5 991.2
18 12.12 штиль 0 4000 м дымка 3/0
[Ci fib]
-44.1 -46.4 78 -44 -44 опасность
обморожения
1020.5 991.2
21 12.12 штиль 0 10 км дымка 4/0
[Ci fib]
-41.1 -42.1 90 -41 -41 опасность
обморожения
1020.5 991.6 -44.8 18
00 13.12 штиль 0 10 км дымка 8/0
[Ac trans Cs]
-38.7 -40.8 80 -39 -39 опасность
обморожения
1021.5 992.7
03 13.12 штиль 0 20 км 6/0
[Ac trans Ci fib]
-39.2 -41.2 81 -39 -39 опасность
обморожения
1021.6 992.8
06 13.12 штиль 0 50 км 9/0
[Ac trans Ci fib]
-37.7 -39.9 80 -38 -38 опасность
обморожения
1021.6 992.9
09 13.12 штиль 0 10 км дымка 4/0
[Ci fib]
-40.1 -42.2 80 -40 -40 опасность
обморожения
1021.9 993.0 -37.7
12 13.12 штиль 0 4000 м дымка 6/0
[Ci fib]
-40.8 -43.2 77 -41 -41 опасность
обморожения
1021.4 992.5
15 13.12 штиль 0 4000 м дымка 3/0
[Ci fib]
-42.9 -45.0 80 -43 -43 опасность
обморожения
1020.5 991.3
18 13.12 штиль 0 4000 м дымка 3/0
[Ci fib]
-44.3 -46.4 79 -44 -44 опасность
обморожения
1019.7 990.4
21 13.12 штиль 0 4000 м дымка 3/0
[Ci fib]
-45.0 -47.2 78 -45 -45 опасность
обморожения
1018.8 989.4 -45.0 18
00 14.12 штиль 0 4000 м дымка 3/0
[Ci fib]
-44.6 -46.4 82 -45 -45 опасность
обморожения
1017.5 988.1
03 14.12 штиль 0 20 км 4/0
[Ci fib]
-44.3 -46.4 79 -44 -44 опасность
обморожения
1015.8 986.6
06 14.12 штиль 0 4000 м дымка 4/0
[Ci fib]
-45.2 -47.2 80 -45 -45 опасность
обморожения
1014.8 985.5
09 14.12 штиль 0 4000 м дымка 4/0
[Ci fib]
-45.2 -47.2 80 -45 -45 опасность
обморожения
1014.0 984.7 -44.6
12 14.12 штиль 0 4000 м дымка 3/0
[Ci fib]
-45.6 -48.6 71 -46 -46 опасность
обморожения
1013.7 984.3
15 14.12 штиль 0 4000 м дымка 3/0
[Ci fib]
-45.8 -48.6 73 -46 -46 опасность
обморожения
1013.0 983.6
18 14.12 штиль 0 4000 м дымка 3/0
[Ci fib]
-46.3 -48.6 77 -46 -46 опасность
обморожения
1012.6 983.2
21 14.12 штиль 0 4000 м дымка 3/0
[Ci fib]
-46.3 -48.1 82 -46 -46 опасность
обморожения
1012.5 983.1 -46.5 18
00 15.12 штиль 0 4000 м дымка 4/0
[Ci fib]
-46.1 -48.6 76 -46 -46 опасность
обморожения
1012.3 982.9
03 15.12 штиль 0 4000 м дымка 4/0
[Ci fib]
-45.5 -47.2 83 -46 -46 опасность
обморожения
1011.2 981.9
06 15.12 штиль 0 2000 м дымка 3/0
[Ci fib]
-44.4 -46.4 80 -44 -44 опасность
обморожения
1010.7 981.7
09 15.12 штиль 0 2000 м дымка 3/0
[Ci fib]
-43.7 -45.7 80 -44 -44 опасность
обморожения
1011.4 982.4 -43.7
12 15.12 штиль 0 4000 м дымка 3/0
[Ci fib]
-44.1 -46.4 78 -44 -44 опасность
обморожения
1012.0 982.8
15 15.12 штиль 0 4000 м дымка 3/0
[Ci fib]
-44.1 -46.4 78 -44 -44 опасность
обморожения
1011.4 982.4
18 15.12 штиль 0 4000 м дымка 3/0
[Ci fib]
-44.3 -46.4 79 -44 -44 опасность
обморожения
1011.7 982.5
21 15.12 штиль 0 4000 м дымка 3/0
[Ci fib]
-44.1 -46.4 78 -44 -44 опасность
обморожения
1011.3 982.3 -44.4 18
00 16.12 штиль 0 20 км 5/0
[Ci fib]
-41.5 -43.8 78 -42 -42 опасность
обморожения
1010.9 982.1
03 16.12 штиль 0 20 км 5/0
[Ci fib]
-38.8 -41.2 78 -39 -39 опасность
обморожения
1009.9 981.5
06 16.12 штиль 0 2000 м дымка 3/0
[Ci fib]
-39.6 -41.7 80 -40 -40 опасность
обморожения
1010.2 981.7
09 16.12 штиль 0 2000 м дымка 3/0
[Ci fib]
-39.6 -41.7 80 -40 -40 опасность
обморожения
1010.5 982.0 -38.8
12 16.12 штиль 0 4000 м дымка 6/0
[Ci fib]
-39.4 -41.7 79 -39 -39 опасность
обморожения
1011.0 982.5
15 16.12 штиль 0 4000 м дымка 4/0
[Ci fib]
-41.2 -43.2 81 -41 -41 опасность
обморожения
1011.3 982.5
18 16.12 штиль 0 4000 м дымка 3/0
[Ci fib]
-42.4 -44.4 81 -42 -42 опасность
обморожения
1011.7 982.8
21 16.12 штиль 0 4000 м дымка ясно -43.1 -45.0 81 -43 -43 опасность
обморожения
1012.6 983.6 -43.1 18
00 17.12 штиль 0 4000 м ясно -43.4 -45.7 78 -43 -43 опасность
обморожения
1013.0 984.0 -43.5
03 17.12 штиль 0 4000 м дымка 3/0
[Ci fib]
-42.8 -45.0 79 -43 -43 опасность
обморожения
1013.0 984.0
06 17.12 штиль 0 2000 м дымка 3/0
[Ci fib]
-43.2 -45.0 82 -43 -43 опасность
обморожения
1013.0 984.0
09 17.12 штиль 0 4000 м дымка 3/0
[Ci fib]
-43.4 -45.7 78 -43 -43 опасность
обморожения
1013.7 984.7 -42.8
12 17.12 штиль 0 4000 м дымка 3/0
[Ci fib]
-43.3 -45.7 77 -43 -43 опасность
обморожения
1014.0 985.0
15 17.12 штиль 0 4000 м дымка 3/0
[Ci fib]
-42.8 -45.0 79 -43 -43 опасность
обморожения
1013.6 984.6
18 17.12 штиль 0 4000 м дымка 3/0
[Ci fib]
-43.7 -45.7 80 -44 -44 опасность
обморожения
1014.2 985.0
21 17.12 штиль 0 4000 м дымка 3/0
[Ci fib]
-44.1 -46.4 78 -44 -44 опасность
обморожения
1014.0 984.8 -44.1 18
00 18.12 штиль 0 4000 м дымка 3/0
[Ci fib]
-43.0 -45.0 80 -43 -43 опасность
обморожения
1013.9 984.9 -44.1
03 18.12 штиль 0 4000 м дымка 3/0
[Ci fib]
-42.7 -45.0 78 -43 -43 опасность
обморожения
1013.6 984.6
06 18.12 штиль 0 4000 м дымка 4/0
[Ci fib]
-43.0 -45.0 80 -43 -43 опасность
обморожения
1014.3 985.3
09 18.12 штиль 0 4000 м дымка 3/0
[Ci fib]
-43.0 -45.0 80 -43 -43 опасность
обморожения
1014.9 985.9 -42.7
12 18.12 штиль 0 4000 м дымка 3/0
[Ci fib]
-43.6 -45.7 80 -44 -44 опасность
обморожения
1016.0 986.8
15 18.12 штиль 0 4000 м дымка 3/0
[Ci fib]
-44.2 -46.4 79 -44 -44 опасность
обморожения
1016.4 987.2
18 18.12 штиль 0 4000 м дымка 3/0
[Ci fib]
-44.5 -46.4 81 -45 -45 опасность
обморожения
1017.0 987.6

 

Местоположение метеостанции Усть-Мома (Якутия, Россия): широта 66.45 долгота 143.20 высота над уровнем моря 196 м.

В архиве по умолчанию представлена погода в Усть-Моме за последнюю неделю. Архивные данные за месяц целиком и за предыдущие месяцы, начиная с января 2011 года, Вы можете получить, выбрав интересующий диапазон дат из раскрывающегося списка и нажав кнопку "Ввод!".


*Определитесь, кто Вы:
робот инопланетянин человек

Внимание! Время в таблицах - всемирное. Для получения местного времени необходимо прибавить поправку, которая в Усть-Моме равна 11 ч.

Смотрите также архив погоды в соседних городах и на ближайших метеорологических станциях:

Погода в Усть-Нере (Якутия, Россия) (214 км)
Погода в Белой Горе (Якутия, Россия) (266 км)
Погода в Юртах (Якутия, Россия) (275 км)
Погода в Усть-Чарках (Якутия, Россия) (294 км)
Погода в Делянкире (Якутия, Россия) (312 км)
Погода в Агаякане (Якутия, Россия) (354 км)
Погода в Депутатском (Якутия, Россия) (355 км)
Погода в Оймяконе (Якутия, Россия) (356 км)
Погода в Зырянке (Якутия, Россия) (356 км)
Погода в Иэме (Якутия, Россия) (360 км)

Пояснения к столбцам:

Ветер - указаны скорость ветра в м/с - средняя за 10 мин, порывы в срок и между сроками (в фигурных скобках) и направление, откуда дует ветер: С - северный, СВ - северо-восточный, В - восточный, ЮВ - юго-восточный, Ю - южный, ЮЗ - юго-западный, З - западный, СЗ - северо-западный.
Видимость - горизонтальная дальность видимости в метрах или километрах. При видимости от 1 до 10 км при отсутствии осадков обычно наблюдается дымка, при ухудшении видимости до 1 км и менее - туман. В сухую погоду видимость может ухудшаться дымом, пылью или мглою.
Явления - указаны атмосферные явления, наблюдавшиеся в срок или в последний час перед сроком; фигурными скобками обозначены явления, наблюдавшиеся между сроками (за 1-3 часа до срока); квадратными скобками обозначены град или гололедные отложения с указанием их диаметра в мм.
Облачность - указаны через наклонную черту общая и нижняя облачность в баллах и высота нижней границы облаков в метрах; квадратными скобками обозначены формы облаков: Ci - перистые, Cs - перисто-слоистые, Cc - перисто-кучевые, Ac - высококучевые, As - высокослоистые, Sc - слоисто-кучевые, Ns - слоисто-дождевые, Cu - кучевые, Cb - кучево-дождевые. Подробнее классификацию облаков см. в Атласе облаков (PDF).
T - Температура воздуха - температура, измеренная на высоте 2 м над землей.
Td - Температура точки росы - температура, при понижении до которой содержащийся в воздухе водяной пар достигнет насыщения.
f - Относительная влажность воздуха - влажноcть воздуха, измеренная на высоте 2 м над землей.
Te - Эффективная температура - температура, которую ощущает одетый по сезону человек в тени. Характеристика душности погоды. При расчете учитывается влияние влажности воздуха и скорости ветра на теплоощущения человека.
Tes - Эффективная температура на солнце - температура, которую ощущает человек, с поправкой на солнечный нагрев. Характеристика знойности погоды. Зависит от высоты солнца над горизонтом, облачности и скорости ветра. Ночью, в пасмурную погоду, а также при ветре 12 м/с и более поправка равна нулю.
P - Атмосферное давление - приведенное к уровню моря атмосферное давление.
Po - Атмосферное давление - измеренное на уровне метеостанции атмосферное давление.
Tmin - Минимальная температура - минимум температуры воздуха на высоте 2 м над землей.
Tmax - Максимальная температура - максимум температуры воздуха на высоте 2 м над землей.
R - Количество осадков - Количество выпавших осадков за период времени, мм. При наведении курсора мыши на число - период времени, за который выпало указанное количество осадков.
R24 - Количество осадков - Количество выпавших осадков за 24 часа, мм.
S - Снежный покров - Высота снежного покрова, см. При наведении курсора мыши на число - состояние снежного покрова и степень покрытия местности в баллах.